When you browse on this site, cookies collect data to enhance your experience and personalize the content and advertising you see.
Visit our Privacy Policy to learn more. By continuing to use the site, you agree to this use of cookies and data.

Hourly Weather Hmeliny

Today, 25 September, Friday

Time Temperature Precipitation Wind Pressure Humidity
00:00 +14°C° 0 mm 2 mps 744 mmHg 62%
01:00 +12°C° 0 mm 3 mps 744 mmHg 62%
02:00 +13°C° 0 mm 2 mps 744 mmHg 60%
03:00 +12°C° 0 mm 3 mps 744 mmHg 60%
04:00 +12°C° 0 mm 3 mps 744 mmHg 60%
05:00 +12°C° 0 mm 3 mps 744 mmHg 59%
06:00 +13°C° 0 mm 3 mps 744 mmHg 57%
07:00 +14°C° 0 mm 4 mps 744 mmHg 55%
08:00 +15°C° 0 mm 4 mps 744 mmHg 52%
09:00 +17°C° 0 mm 4 mps 744 mmHg 50%
10:00 +19°C° 0 mm 4 mps 744 mmHg 48%
11:00 +20°C° 0 mm 4 mps 744 mmHg 46%
12:00 +21°C° 0 mm 4 mps 744 mmHg 44%
13:00 +22°C° 0 mm 4 mps 744 mmHg 42%
14:00 +24°C° 0 mm 3 mps 744 mmHg 44%
15:00 +21°C° 0 mm 4 mps 743 mmHg 49%
16:00 +20°C° 0 mm 4 mps 743 mmHg 53%
17:00 +18°C° 0 mm 4 mps 743 mmHg 58%
18:00 +18°C° 0 mm 4 mps 743 mmHg 58%
19:00 +17°C° 0 mm 4 mps 743 mmHg 58%
20:00 +15°C° 0 mm 4 mps 743 mmHg 59%
21:00 +15°C° 0 mm 4 mps 743 mmHg 60%
22:00 +14°C° 0 mm 4 mps 743 mmHg 61%
23:00 +14°C° 0 mm 4 mps 743 mmHg 63%

Tomorrow, 26 September, Saturday

Time Temperature Precipitation Wind Pressure Humidity
00:00 +13°C° 0 mm 4 mps 743 mmHg 64%
01:00 +13°C° 0 mm 4 mps 743 mmHg 66%
02:00 +13°C° 0 mm 4 mps 743 mmHg 67%
03:00 +12°C° 0 mm 4 mps 743 mmHg 68%
04:00 +12°C° 0 mm 4 mps 743 mmHg 68%
05:00 +12°C° 0 mm 4 mps 743 mmHg 69%
06:00 +13°C° 0 mm 5 mps 743 mmHg 67%
07:00 +14°C° 0 mm 5 mps 743 mmHg 65%
08:00 +15°C° 0 mm 5 mps 743 mmHg 62%
09:00 +17°C° 0 mm 6 mps 744 mmHg 57%
10:00 +19°C° 0 mm 6 mps 744 mmHg 52%
11:00 +21°C° 0 mm 6 mps 744 mmHg 46%
12:00 +21°C° 0 mm 6 mps 744 mmHg 45%
13:00 +22°C° 0 mm 6 mps 744 mmHg 44%
14:00 +22°C° 0 mm 6 mps 744 mmHg 43%
15:00 +21°C° 0 mm 6 mps 744 mmHg 48%
16:00 +20°C° 0 mm 5 mps 743 mmHg 52%
17:00 +18°C° 0 mm 4 mps 743 mmHg 57%
18:00 +18°C° 0 mm 4 mps 743 mmHg 56%
19:00 +17°C° 0 mm 4 mps 744 mmHg 55%
20:00 +15°C° 0 mm 5 mps 744 mmHg 54%
21:00 +16°C° 0 mm 5 mps 744 mmHg 51%
22:00 +16°C° 0 mm 5 mps 744 mmHg 48%
23:00 +17°C° 0 mm 6 mps 744 mmHg 45%

Day after tomorrow, 27 September, Sunday

Time Temperature Precipitation Wind Pressure Humidity
00:00 +17°C° 0 mm 6 mps 744 mmHg 43%
01:00 +16°C° 0 mm 6 mps 744 mmHg 42%
02:00 +16°C° 0 mm 6 mps 745 mmHg 41%
03:00 +15°C° 0 mm 6 mps 745 mmHg 41%
04:00 +14°C° 0 mm 6 mps 745 mmHg 41%
05:00 +13°C° 0 mm 6 mps 745 mmHg 42%
06:00 +13°C° 0 mm 6 mps 745 mmHg 43%
07:00 +14°C° 0 mm 7 mps 745 mmHg 45%
08:00 +14°C° 0 mm 7 mps 746 mmHg 47%
09:00 +15°C° 0 mm 7 mps 745 mmHg 45%
10:00 +16°C° 0 mm 7 mps 745 mmHg 43%
11:00 +17°C° 0 mm 8 mps 745 mmHg 41%
12:00 +17°C° 0 mm 8 mps 745 mmHg 41%
13:00 +18°C° 0 mm 8 mps 745 mmHg 41%
14:00 +20°C° 0 mm 8 mps 745 mmHg 40%
15:00 +18°C° 0 mm 7 mps 745 mmHg 42%
16:00 +17°C° 0 mm 6 mps 745 mmHg 43%
17:00 +17°C° 0 mm 6 mps 745 mmHg 44%
18:00 +17°C° 0 mm 6 mps 745 mmHg 42%
19:00 +17°C° 0 mm 6 mps 745 mmHg 40%
20:00 +17°C° 0 mm 6 mps 745 mmHg 38%
21:00 +16°C° 0 mm 6 mps 745 mmHg 38%
22:00 +16°C° 0 mm 6 mps 745 mmHg 39%
23:00 +16°C° 0 mm 6 mps 746 mmHg 39%

28 September, Monday

Time Temperature Precipitation Wind Pressure Humidity
00:00 +15°C° 0.1 mm 6 mps 746 mmHg 40%
01:00 +15°C° 0.1 mm 5 mps 746 mmHg 42%
02:00 +15°C° 0.1 mm 5 mps 746 mmHg 43%
03:00 +13°C° 0.8 mm 6 mps 746 mmHg 57%
04:00 +11°C° 0.8 mm 6 mps 746 mmHg 71%
05:00 +10°C° 0.8 mm 7 mps 746 mmHg 85%
06:00 +10°C° 0.5 mm 7 mps 746 mmHg 84%
07:00 +10°C° 0.5 mm 6 mps 746 mmHg 82%
08:00 +11°C° 0.5 mm 6 mps 746 mmHg 81%
09:00 +13°C° 0.2 mm 6 mps 746 mmHg 79%
10:00 +13°C° 0.2 mm 6 mps 746 mmHg 78%
11:00 +14°C° 0.2 mm 6 mps 747 mmHg 77%
12:00 +15°C° 0 mm 5 mps 747 mmHg 74%
13:00 +16°C° 0 mm 5 mps 747 mmHg 71%
14:00 +16°C° 0 mm 5 mps 747 mmHg 67%
15:00 +17°C° 0 mm 4 mps 747 mmHg 70%
16:00 +15°C° 0 mm 4 mps 747 mmHg 73%
17:00 +14°C° 0 mm 3 mps 747 mmHg 75%
18:00 +14°C° 0 mm 3 mps 747 mmHg 75%
19:00 +13°C° 0 mm 4 mps 747 mmHg 74%
20:00 +13°C° 0 mm 4 mps 747 mmHg 73%
21:00 +13°C° 0 mm 4 mps 747 mmHg 71%
22:00 +12°C° 0 mm 4 mps 747 mmHg 69%
23:00 +12°C° 0 mm 3 mps 747 mmHg 67%

29 September, Tuesday

Time Temperature Precipitation Wind Pressure Humidity
00:00 +12°C° 0 mm 3 mps 747 mmHg 64%
01:00 +12°C° 0 mm 4 mps 747 mmHg 60%
02:00 +12°C° 0 mm 4 mps 747 mmHg 57%
03:00 +12°C° 0 mm 4 mps 747 mmHg 55%
04:00 +12°C° 0 mm 4 mps 747 mmHg 53%
05:00 +12°C° 0 mm 5 mps 747 mmHg 51%
06:00 +13°C° 0 mm 5 mps 747 mmHg 52%
07:00 +13°C° 0 mm 5 mps 747 mmHg 52%
08:00 +13°C° 0 mm 6 mps 746 mmHg 53%
09:00 +14°C° 0 mm 6 mps 746 mmHg 51%
10:00 +15°C° 0 mm 7 mps 746 mmHg 49%
11:00 +16°C° 0 mm 7 mps 746 mmHg 47%
12:00 +16°C° 0 mm 7 mps 746 mmHg 47%
13:00 +16°C° 0 mm 7 mps 745 mmHg 48%
14:00 +16°C° 0 mm 8 mps 745 mmHg 48%
15:00 +15°C° 0.2 mm 7 mps 745 mmHg 53%
16:00 +14°C° 0.2 mm 7 mps 745 mmHg 58%
17:00 +11°C° 0.2 mm 7 mps 745 mmHg 63%
18:00 +11°C° 0.2 mm 6 mps 745 mmHg 66%
19:00 +11°C° 0.2 mm 6 mps 745 mmHg 69%
20:00 +11°C° 0.2 mm 6 mps 745 mmHg 72%
21:00 +12°C° 0.1 mm 5 mps 744 mmHg 69%
22:00 +12°C° 0.1 mm 5 mps 744 mmHg 66%
23:00 +12°C° 0.1 mm 4 mps 744 mmHg 63%

30 September, Wednesday

Time Temperature Precipitation Wind Pressure Humidity
00:00 +12°C° 0.1 mm 5 mps 744 mmHg 59%
01:00 +12°C° 0.1 mm 5 mps 743 mmHg 56%
02:00 +12°C° 0.1 mm 5 mps 743 mmHg 52%
03:00 +11°C° 0 mm 6 mps 743 mmHg 49%
04:00 +11°C° 0 mm 6 mps 743 mmHg 47%
05:00 +11°C° 0 mm 7 mps 743 mmHg 44%
06:00 +11°C° 0 mm 7 mps 743 mmHg 44%
07:00 +12°C° 0 mm 8 mps 743 mmHg 45%
08:00 +12°C° 0 mm 8 mps 743 mmHg 45%
09:00 +13°C° 0 mm 8 mps 743 mmHg 43%
10:00 +15°C° 0 mm 8 mps 743 mmHg 42%
11:00 +16°C° 0 mm 8 mps 743 mmHg 40%
12:00 +16°C° 0 mm 8 mps 743 mmHg 40%
13:00 +17°C° 0 mm 7 mps 743 mmHg 40%
14:00 +17°C° 0 mm 7 mps 743 mmHg 39%
15:00 +16°C° 0 mm 6 mps 743 mmHg 39%
16:00 +16°C° 0 mm 6 mps 743 mmHg 40%
17:00 +15°C° 0 mm 6 mps 743 mmHg 40%
18:00 +15°C° 0 mm 6 mps 743 mmHg 38%
19:00 +15°C° 0 mm 6 mps 743 mmHg 36%
20:00 +15°C° 0 mm 6 mps 743 mmHg 34%
21:00 +14°C° 0 mm 6 mps 744 mmHg 35%
22:00 +14°C° 0 mm 6 mps 744 mmHg 36%
23:00 +14°C° 0 mm 6 mps 744 mmHg 37%
Show more